Weather History for Mullan Pass, ID

Change the Weather History Date:

Thursday, September 5, 2013

  Actual Average (K3TH) Record (K3TH)
Temperature  
Mean Temperature 58 °F -  
Max Temperature 64 °F 77 °F 99 °F (1998)
Min Temperature 53 °F 49 °F 48 °F (1999)
Degree Days  
Heating Degree Days 6    
Growing Degree Days 8 (Base 50)    
Moisture  
Dew Point 54 °F    
Average Humidity 91    
Maximum Humidity 100    
Minimum Humidity 56    
Precipitation  
Precipitation 0.20 in - - ()
Sea Level Pressure  
Sea Level Pressure 30.08 in    
Wind  
Wind Speed 4 mph (SE)    
Max Wind Speed 10 mph    
Max Gust Speed 18 mph    
Visibility 6 miles    
Events Fog , Rain    
Averages and records for this station are not official NWS values.
T = Trace of Precipitation, MM = Missing Value Source: NWS Daily Summary

Daily Weather History Graph

Daily Weather History Graph

Search for Another Location

Airport:

Trip Planner

Search our weather history database for the weather conditions in past years. The results will help you decide how hot, cold, wet, or windy it might be!

Date:

Astronomy

Sep. 05, 2013 Rise Set
Actual Time 6:07 AM PDT 7:14 PM PDT
Civil Twilight 5:35 AM PDT 7:45 PM PDT
Nautical Twilight 4:57 AM PDT 8:23 PM PDT
Astronomical Twilight 4:17 AM PDT 9:03 PM PDT
Moon 6:28 AM PDT (9/5) 7:01 PM PDT (9/5)
Length of Visible Light 14h 09m
Length of Day
13h 07m
Waxing Crescent, 0% of the Moon is Illuminated
Sep 5
Waxing Crescent
Sep 12
First Quarter
Sep 19
Full
Sep 26
Last Quarter
Oct 4
New

Hourly Weather History & Observations

Time (PDT) Temp. Dew Point Humidity Pressure Visibility Wind Dir Wind Speed Gust Speed Precip Events Conditions
12:53 AM 59.0 °F 51.1 °F 75% 29.90 in 10.0 mi NNW 3.5 mph - N/A   Clear
1:53 AM 60.1 °F 50.0 °F 69% 29.88 in 10.0 mi ESE 8.1 mph - N/A   Clear
2:53 AM 60.1 °F 50.0 °F 69% 29.87 in 10.0 mi ESE 9.2 mph - N/A   Clear
3:53 AM 61.0 °F 48.9 °F 64% 29.85 in 10.0 mi ESE 5.8 mph - N/A   Mostly Cloudy
4:53 AM 61.0 °F 48.9 °F 64% 29.85 in 10.0 mi SW 3.5 mph - 0.00 in   Overcast
5:53 AM 54.0 °F 52.0 °F 93% 29.94 in 7.0 mi WSW 9.2 mph 16.1 mph 0.08 in Rain Light Rain
6:19 AM 53.6 °F 53.6 °F 100% 30.23 in 7.0 mi WSW 8.1 mph - 0.02 in Rain Light Rain
6:44 AM 53.6 °F 53.6 °F 100% 30.25 in 1.8 mi Variable 4.6 mph - 0.04 in Rain Light Rain
6:48 AM 53.6 °F 53.6 °F 100% 30.24 in 1.2 mi Variable 3.5 mph - 0.05 in Rain Light Rain
6:53 AM 53.1 °F 53.1 °F 100% 29.96 in 0.8 mi North 4.6 mph - 0.08 in Rain Heavy Rain
6:58 AM 53.6 °F 53.6 °F 100% 30.23 in 0.2 mi North 4.6 mph - 0.01 in Fog , Rain Rain
7:16 AM 53.6 °F 53.6 °F 100% 30.20 in 0.2 mi Calm Calm - 0.03 in Fog , Rain Light Rain
7:22 AM 53.6 °F 53.6 °F 100% 30.21 in 1.5 mi Calm Calm - 0.03 in Rain Light Rain
7:27 AM 53.6 °F 53.6 °F 100% 30.21 in 5.0 mi Calm Calm - 0.04 in Rain Light Rain
7:53 AM 54.0 °F 53.1 °F 97% 29.93 in 10.0 mi Calm Calm - 0.04 in   Clear
8:13 AM 53.6 °F 53.6 °F 100% 30.20 in 0.5 mi SSE 3.5 mph - N/A Fog Fog
8:20 AM 53.6 °F 53.6 °F 100% 30.20 in 0.2 mi Calm Calm - N/A Fog Fog
8:25 AM 55.4 °F 55.4 °F 100% 30.20 in 1.0 mi Calm Calm - N/A   Mist
8:32 AM 55.4 °F 55.4 °F 100% 30.20 in 0.5 mi Calm Calm - N/A Fog Fog
8:37 AM 55.4 °F 55.4 °F 100% 30.20 in 1.2 mi Calm Calm - N/A   Scattered Clouds
8:39 AM 55.4 °F 55.4 °F 100% 30.20 in 4.0 mi Calm Calm - N/A   Scattered Clouds
8:53 AM 57.0 °F 55.9 °F 96% 29.92 in 8.0 mi Calm Calm - N/A   Scattered Clouds
9:18 AM 57.2 °F 55.4 °F 94% 30.20 in 0.5 mi SE 4.6 mph - N/A Fog Fog
9:25 AM 55.4 °F 55.4 °F 100% 30.20 in 0.2 mi East 4.6 mph - N/A Fog Fog
9:53 AM 55.0 °F 55.0 °F 100% 29.93 in 0.2 mi SE 4.6 mph - N/A Fog Fog
10:18 AM 55.4 °F 55.4 °F 100% 30.20 in 1.0 mi Calm Calm - N/A   Overcast
10:21 AM 55.4 °F 55.4 °F 100% 30.20 in 4.0 mi Calm Calm - N/A   Overcast
10:34 AM 55.4 °F 55.4 °F 100% 30.21 in 1.0 mi Variable 3.5 mph - N/A   Overcast
10:38 AM 55.4 °F 55.4 °F 100% 30.21 in 0.2 mi SSE 4.6 mph - N/A Fog Fog
10:49 AM 55.4 °F 55.4 °F 100% 30.21 in 1.0 mi SSE 3.5 mph - N/A   Overcast
10:53 AM 55.9 °F 55.9 °F 100% 29.97 in 0.8 mi Calm Calm - N/A   Overcast
11:01 AM 57.2 °F 57.2 °F 100% 30.21 in 0.2 mi SSE 4.6 mph - N/A Fog Fog
11:53 AM 55.9 °F 55.9 °F 100% 29.97 in 0.2 mi Variable 4.6 mph - N/A Fog Fog
12:19 PM 55.4 °F 55.4 °F 100% 30.23 in 0.8 mi Variable 4.6 mph - N/A   Mist
12:30 PM 55.4 °F 55.4 °F 100% 30.22 in 1.5 mi Variable 4.6 mph - N/A   Overcast
12:37 PM 55.4 °F 55.4 °F 100% 30.22 in 4.0 mi Variable 3.5 mph - N/A   Overcast
12:53 PM 55.9 °F 55.9 °F 100% 29.97 in 8.0 mi Calm Calm - N/A   Overcast
1:09 PM 55.4 °F 55.4 °F 100% 30.22 in 10.0 mi Variable 4.6 mph - N/A   Overcast
1:53 PM 57.0 °F 57.0 °F 100% 29.92 in 9.0 mi Variable 3.5 mph - N/A   Overcast
2:14 PM 57.2 °F 55.4 °F 94% 30.18 in 10.0 mi SSE 6.9 mph - N/A   Mostly Cloudy
2:44 PM 59.0 °F 57.2 °F 94% 30.18 in 9.0 mi Variable 3.5 mph - N/A   Mostly Cloudy
2:53 PM 60.1 °F 57.0 °F 90% 29.91 in 10.0 mi Variable 4.6 mph - N/A   Scattered Clouds
3:00 PM 60.8 °F 57.2 °F 88% 30.17 in 10.0 mi Calm Calm - N/A   Mostly Cloudy
3:13 PM 62.6 °F 57.2 °F 82% 30.17 in 10.0 mi Calm Calm - N/A   Mostly Cloudy
3:29 PM 62.6 °F 57.2 °F 82% 30.16 in 10.0 mi Variable 3.5 mph - N/A   Mostly Cloudy
3:40 PM 62.6 °F 57.2 °F 82% 30.15 in 10.0 mi Variable 3.5 mph - N/A   Mostly Cloudy
3:53 PM 63.0 °F 55.9 °F 78% 29.87 in 10.0 mi Variable 3.5 mph - N/A   Mostly Cloudy
4:09 PM 62.6 °F 55.4 °F 77% 30.14 in 10.0 mi Variable 3.5 mph - N/A   Partly Cloudy
4:53 PM 64.0 °F 55.9 °F 75% 29.83 in 10.0 mi Calm Calm - N/A   Clear
5:53 PM 63.0 °F 55.9 °F 78% 29.86 in 10.0 mi Calm Calm - N/A   Clear
6:53 PM 60.1 °F 55.0 °F 83% 29.86 in 10.0 mi SE 5.8 mph - N/A   Clear
7:53 PM 60.1 °F 54.0 °F 80% 29.88 in 10.0 mi SE 5.8 mph 16.1 mph N/A   Scattered Clouds
8:53 PM 59.0 °F 55.0 °F 87% 29.90 in 10.0 mi Calm Calm - N/A   Overcast
9:02 PM 59.0 °F 55.4 °F 88% 30.16 in 10.0 mi Variable 4.6 mph - N/A   Overcast
9:12 PM 59.0 °F 53.6 °F 82% 30.16 in 10.0 mi Variable 5.8 mph - N/A   Overcast
9:53 PM 54.0 °F 50.0 °F 86% 29.92 in 10.0 mi SSE 10.4 mph 18.4 mph 0.00 in Rain Light Rain
10:53 PM 57.9 °F 42.1 °F 56% 29.87 in 10.0 mi SE 8.1 mph - 0.00 in   Mostly Cloudy
11:53 PM 54.0 °F 46.0 °F 75% 29.88 in 10.0 mi SE 10.4 mph - N/A   Clear